This demonstration page uses our WeatherBlox Daily Observations layout. Learn more.

Left ArrowRight Arrow

38.83388, -104.82136

Hourly Observations for May 1, 2018

Temp ( °F °C ) Dew Point ( °F °C ) Humidity (%) Winds ( mph kmh ) Pressure ( in mb ) Visibility ( mi km ) Precip ( " mm )
12:03 am 00:03 Mostly Cloudy 52 11 36 2 54 54 NW 16 26 29.33 993 10 16 0.00 0.00
12:39 am 00:39 Mostly Cloudy 50 10 37 3 62 62 N 17 28 29.32 993 10 16 0.00 0.00
12:58 am 00:58 Mostly Cloudy 49 9.5 38 3.2 65 65 NW 15 24 29.33 993 10 16 0.00 0.00
1:58 am 01:58 Mostly Clear 48 8.8 37 2.6 65 65 N 7 11 29.34 994 10 16 0.00 0.00
2:58 am 02:58 Partly Cloudy 46 7.8 37 2.6 70 70 N 8 13 29.36 994 10 16 0.00 0.00
3:58 am 03:58 Partly Cloudy 44 6.5 37 2.6 76 76 NNW 6 9 29.35 994 10 16 0.00 0.00
4:58 am 04:58 Partly Cloudy 42 5.7 37 2.7 81 81 Calm 29.37 995 10 16 0.00 0.00
5:13 am 05:13 Mostly Cloudy 43 6 37 3 81 81 Calm 29.37 995 10 16 0.00 0.00
5:58 am 05:58 Mostly Cloudy 41 5.1 37 2.9 86 86 S 6 9 29.41 996 10 16 0.00 0.00
6:23 am 06:23 Mostly Cloudy 43 6 37 3 81 81 SSE 3 6 29.41 996 10 16 0.00 0.00
6:58 am 06:58 Mostly Cloudy 42 5.7 37 2.7 81 81 SE 3 6 29.41 996 10 16 0.00 0.00
7:43 am 07:43 Mostly Cloudy 45 7 39 4 81 81 ESE 3 6 29.40 996 10 16 0.00 0.00
7:53 am 07:53 Mostly Cloudy 45 7 37 3 76 76 Calm 29.41 996 10 16 0.00 0.00
7:58 am 07:58 Mostly Cloudy 44 6.8 38 3.3 79 79 E 5 7 29.40 996 10 16 0.00 0.00
8:58 am 08:58 Mostly Cloudy 45 7.3 35 1.5 67 67 SSE 3 6 29.41 996 10 16 0.00 0.00
9:13 am 09:13 Mostly Cloudy 46 8 36 2 66 66 SE 5 7 29.41 996 10 16 0.00 0.00
9:48 am 09:48 Mostly Cloudy 48 9 36 2 62 62 ESE 6 9 29.39 995 10 16 0.00 0.00
9:58 am 09:58 Mostly Cloudy 47 8.3 37 2.5 67 67 ESE 8 13 29.40 996 10 16 0.00 0.00
10:58 am 10:58 Mostly Cloudy 49 9.5 36 2.4 62 62 ESE 10 17 29.37 995 10 16 0.00 0.00
11:58 am 11:58 Mostly Cloudy 52 10.9 36 2.1 55 55 SE 9 15 29.37 995 10 16 0.00 0.00
12:58 pm 12:58 Mostly Cloudy 53 11.4 34 1.1 49 49 SE 9 15 29.37 995 10 16 0.00 0.00
1:43 pm 13:43 Mostly Cloudy 61 16 21 -6 22 22 S 23 37 29.28 992 10 16 0.00 0.00
1:58 pm 13:58 Partly Cloudy 61 16.1 18 -7.8 19 19 SE 14 22 29.31 992 10 16 0.00 0.00
2:00 pm 14:00 Partly Cloudy 61 16 14 -10 16 16 S 15 24 29.31 992 10 16 0.00 0.00
2:12 pm 14:12 Partly Cloudy 63 17 25 -4 24 24 SE 20 31 29.28 992 10 16 0.00 0.00
2:21 pm 14:21 Mostly Sunny 63 17 18 -8 17 17 S 17 28 29.28 992 10 16 0.00 0.00
2:28 pm 14:28 Partly Cloudy 61 16 23 -5 23 23 SE 17 28 29.30 992 10 16 0.00 0.00
2:58 pm 14:58 Mostly Sunny 62 16.7 22 -5.7 21 21 SE 20 31 29.29 992 10 16 0.00 0.00
3:58 pm 15:58 Partly Cloudy 61 16 19 -7 20 20 SSE 21 33 29.30 992 10 16 0.00 0.00
4:21 pm 16:21 Partly Cloudy 63 17 14 -10 15 15 S 16 26 29.30 992 10 16 0.00 0.00
4:58 pm 16:58 Mostly Sunny 62 16.6 15 -9.7 16 16 S 18 30 29.31 993 10 16 0.00 0.00
5:58 pm 17:58 Mostly Sunny 64 17.7 6 -14.3 10 10 S 16 26 29.20 989 10 16 0.00 0.00
6:58 pm 18:58 Mostly Sunny 60 15.7 6 -14.3 11 11 S 7 11 29.35 994 10 16 0.00 0.00
7:58 pm 19:58 Clear 56 13.5 10 -12.4 15 15 NW 6 9 29.40 996 10 16 0.00 0.00

Powered by AerisWeather